Content
SEND FEEDBACK

Daily
Averages
Monthly
Summary
Turkmenistan

ASHGABAT, TURKMENISTAN


Home > Asia > Turkmenistan
Elevation: 236 meters     Latitude: 37 58N     Longitude: 058 20E

WEATHER
 
SELECT A DAY
Number of Records: 177,268;   Date Range: 3/15/97 - 7/29/14
 
SHARE

PRINT THIS DATA

[ ← Previous Day ]
WEATHER ALMANAC - 15 MAY, 2014
[ Next Day → ]
[ °F ]   °C
Weather ElementAverageHighLow
Temperature27.6 °C34.4 °C (5:00 pm)19 °C (6:00 am)
Dewpoint-0.8 °C6.7 °C (11:00 pm)-4 °C (2:00 am)
Humidity14.3 %21 % (3:00 am)7 % (5:00 pm)
Barometer1007.1 hPa1008.1 hPa (8:00 am)1006.1 hPa (2:00 am)
Wind Speed14.6 km/h25.3 km/h (10:00 am)
Wind Gust25.3 km/h (3:00 pm)
Weather ElementAverage
Visibility9.5 km
Wind DirectionWSW (258.8 °)

Weather ElementTotal
Precipitation---
Cooling Degree Days8.4 (Base 18.3)
Growing Degree Days16.7 (Base 10)
Averaged from 32 records on 15 May, 2014
WEATHER CONDITIONS BREAKOUT
WIND DIRECTION BREAKOUT
WEATHER BY HOUR - 15 MAY, 2014
[ °F ]   °C
Local TimeTemperatureDewpointHumidityBarometerVisibilityWind DirectionWind SpeedGust SpeedPrecipitationEventsConditions
1:00 AM22 °C-3 °C19 %1007.1 hPa10 kmSouth (190°)7.2 km/hPartly Cloudy
2:00 AM21.7 °C-0.6 °C13 %1007.1 hPa1.6 kmSW (220°)10.8 km/hHaze
2:00 AM21 °C-4 °C18 %1006.1 hPa4 kmSSW (200°)7.2 km/hHaze
3:00 AM20 °C-3 °C21 %1006.1 hPa10 kmSW (220°)10.8 km/hScattered Clouds
4:00 AM20 °C-4 °C20 %1006.1 hPa10 kmSW (230°)14.3 km/hScattered Clouds
5:00 AM20 °C-0.6 °C15 %1006.8 hPa9.7 kmWNW (290°)7.2 km/hClear
5:00 AM21 °C-4 °C18 %1006.1 hPa10 kmSW (230°)7.2 km/hPartly Cloudy
6:00 AM19 °C-4 °C21 %1007.1 hPa10 kmWSW (240°)7.2 km/hScattered Clouds
7:00 AM21 °C-4 °C18 %1007.1 hPa10 kmWest (260°)18 km/hPartly Cloudy
8:00 AM22.8 °C0 °C12 %1008.1 hPa9.7 kmWNW (300°)18 km/hClear
8:00 AM24 °C-1 °C19 %1008.1 hPa10 kmWNW (300°)18 km/hPartly Cloudy
9:00 AM26 °C1 °C20 %1008.1 hPa10 kmNW (310°)21.6 km/hMostly Cloudy
10:00 AM28 °C0 °C16 %1008.1 hPa10 kmNW (310°)25.3 km/hMostly Cloudy
11:00 AM28.9 °C3.9 °C11 %1008.1 hPa9.7 kmNNW (340°)25.3 km/hClear
11:00 AM29 °C0 °C15 %1008.1 hPa10 kmNW (320°)25.3 km/hScattered Clouds
12:00 PM31 °C0 °C14 %1008.1 hPa10 kmWNW (300°)21.6 km/hScattered Clouds
1:00 PM32 °C-2 °C11 %1008.1 hPa10 kmNW (310°)18 km/hPartly Cloudy
2:00 PM32.2 °C2.8 °C8 %1007.5 hPa9.7 kmWest (260°)14.3 km/hScattered Clouds
2:00 PM34 °C-1 °C11 %1007.1 hPa10 kmWest (280°)14.3 km/hPartly Cloudy
3:00 PM34 °C-3 °C9 %1007.1 hPa10 kmNNE (30°)7.2 km/h25.3 km/hPartly Cloudy
4:00 PM34 °C-4 °C9 %1006.1 hPa10 kmWNW (300°)10.8 km/hScattered Clouds
5:00 PM34.4 °C3.3 °C7 %1006.1 hPa9.7 kmSW (220°)10.8 km/hClear
5:00 PM34 °C-3 °C9 %1006.1 hPa10 kmSW (230°)10.8 km/hScattered Clouds
6:00 PM34 °C-3 °C9 %1006.1 hPa10 kmWest (280°)10.8 km/hScattered Clouds
6:30 PM34 °C-2 °C10 %1006.1 hPa10 kmWest (270°)18 km/hScattered Clouds
7:00 PM33 °C-2 °C10 %1006.1 hPa10 kmWest (260°)18 km/hScattered Clouds
8:00 PM31.1 °C5.6 °C11 %1006.1 hPa9.7 kmWest (270°)14.3 km/hClear
8:00 PM31 °C-1 °C13 %1006.1 hPa10 kmWest (270°)14.3 km/hPartly Cloudy
9:00 PM29 °C0 °C15 %1007.1 hPa10 kmWest (260°)18 km/hScattered Clouds
10:00 PM27 °C1 °C18 %1007.1 hPa10 kmWest (260°)14.3 km/hPartly Cloudy
11:00 PM25 °C6.7 °C20 %1007.5 hPa9.7 kmWest (260°)14.3 km/h
11:00 PM27 °C0 °C17 %1007.1 hPa10 kmWest (260°)14.3 km/hClear
Hourly data recorded from UTAA, located 0 kilometers away from Ashgabat, Turkmenistan







STORIES FROM OUR PARTNERS